DW0487 Weather Reports


time (UTC)temp
C
wind
direction
speed
KPH
gust
KPH
rain 1hr
cm
rain 24hr
cm
rain mn
cm
humidity
%
barometer
mb
20260507100006 12 331 19.3 29.0 0.00 0.53 0.18 74 1012.1
20260507094506 11 337 12.9 22.5 0.00 0.53 0.18 74 1012.3
20260507093004 13 29 12.9 22.5 0.00 0.53 0.18 70 1012.1
20260507091501 13 72 6.4 12.9 0.00 0.53 0.18 68 1012.1
20260507090057 13 55 3.2 9.7 0.00 0.53 0.18 68 1012.1
20260507084604 12 203 3.2 8.0 0.00 0.53 0.18 68 1012.1
20260507083049 11 148 3.2 6.4 0.00 0.53 0.18 76 1012.1
20260507081552 10 308 1.6 4.8 0.03 0.53 0.18 83 1012.1
20260507080044 9 311 0.0 4.8 0.05 0.53 0.18 91 1012.0
20260507074538 8 82 1.6 6.4 0.13 0.53 0.18 91 1012.1
20260507073034 7 226 3.2 9.7 0.13 0.53 0.18 91 1011.9
20260507071531 8 280 0.0 9.7 0.10 0.51 0.15 93 1011.9
20260507070030 8 88 6.4 9.7 0.05 0.48 0.13 94 1011.7
20260507064527 7 78 0.0 0.0 0.00 0.43 0.05 94 1011.6
20260507063027 7 78 0.0 3.2 0.00 0.43 0.05 94 1011.4
20260507061521 7 31 0.0 4.8 0.00 0.43 0.05 94 1011.5
20260507060024 7 261 0.0 0.0 0.03 0.43 0.05 94 1011.4
20260507054516 7 302 0.0 3.2 0.03 0.43 0.05 94 1011.3
20260507053014 7 322 0.0 0.0 0.03 0.43 0.05 94 1011.2
20260507051511 7 223 0.0 0.0 0.03 0.43 0.05 94 1011.1
20260507050014 7 209 0.0 4.8 0.00 0.41 0.05 94 1011.1
20260507044509 6 226 0.0 0.0 0.00 0.41 0.05 94 1010.9
20260507043012 6 311 0.0 0.0 0.00 0.41 0.05 94 1010.8
20260507041502 6 310 0.0 3.2 0.00 0.41 0.05 94 1010.5
20260507040001 6 310 0.0 3.2 0.00 0.41 0.05 94 1010.5
20260507034600 6 51 0.0 0.0 0.00 0.41 0.05 94 1010.4
20260507033100 6 82 0.0 3.2 0.00 0.41 0.05 94 1010.4
20260507031559 6 144 0.0 1.6 0.00 0.41 0.05 94 1010.3
20260507030100 6 59 0.0 1.6 0.00 0.41 0.05 94 1010.3
20260507024558 6 33 0.0 4.8 0.00 0.41 0.05 93 1010.1
20260507023109 6 34 3.2 6.4 0.00 0.41 0.05 93 1010.2
20260507021555 6 355 3.2 6.4 0.00 0.41 0.05 93 1010.3
20260507020059 7 69 1.6 6.4 0.00 0.41 0.05 94 1010.3
20260507014557 7 113 0.0 4.8 0.00 0.41 0.05 94 1010.1
20260507013054 7 98 0.0 4.8 0.00 0.41 0.05 93 1010.0
20260507011553 7 82 0.0 3.2 0.00 0.41 0.05 93 1010.0
20260507010052 7 333 0.0 3.2 0.03 0.41 0.05 93 1010.2
20260507004551 7 180 0.0 3.2 0.03 0.41 0.05 93 1010.2
20260507003106 7 128 0.0 0.0 0.03 0.41 0.05 93 1009.9
20260507001611 7 128 0.0 3.2 0.03 0.41 0.05 93 1010.2
20260507000050 7 153 0.0 3.2 0.00 0.38 0.03 93 1010.1
20260506234554 7 207 0.0 3.2 0.03 0.38 0.03 92 1010.0
20260506233050 7 337 0.0 4.8 0.03 0.38 0.03 92 1009.9
20260506231549 7 344 1.6 4.8 0.03 0.38 0.03 92 1009.7
20260506230053 7 49 1.6 9.7 0.03 0.38 0.03 92 1009.5
20260506224544 7 24 1.6 6.4 0.03 0.36 0.00 92 1009.4
20260506223042 7 12 3.2 6.4 0.03 0.36 0.00 92 1009.3
20260506221549 7 90 0.0 0.0 0.03 0.36 0.00 92 1009.5
20260506220038 7 134 0.0 0.0 0.03 0.36 0.00 92 1009.7
20260506214537 7 136 3.2 4.8 0.00 0.33 0.33 91 1009.6
20260506213036 7 329 0.0 4.8 0.00 0.33 0.33 91 1009.4
20260506211533 7 319 3.2 8.0 0.00 0.33 0.33 91 1009.2
20260506210047 7 35 4.8 12.9 0.03 0.33 0.33 91 1009.0
20260506204532 7 48 4.8 17.7 0.08 0.33 0.33 90 1008.8
20260506203035 7 25 4.8 12.9 0.23 0.33 0.33 90 1008.7
20260506201530 8 35 4.8 11.3 0.28 0.33 0.33 90 1008.6
20260506200032 8 28 1.6 9.7 0.25 0.33 0.33 89 1008.8
20260506194529 8 76 0.0 3.2 0.18 0.23 0.23 88 1008.8
20260506193034 8 345 3.2 8.0 0.05 0.10 0.10 87 1008.4
20260506191525 8 23 8.0 14.5 0.03 0.05 0.05 87 1007.9
20260506190029 8 44 9.7 16.1 0.05 0.05 0.05 87 1007.7
20260506184534 8 51 6.4 12.9 0.05 0.05 0.05 85 1007.3
20260506183023 9 355 4.8 16.1 0.05 0.05 0.05 83 1007.1
20260506181535 10 15 11.3 20.9 0.05 0.05 0.05 79 1006.7
20260506180122 10 23 12.9 25.7 0.03 0.03 0.03 76 1006.3
20260506174522 11 36 6.4 24.1 0.00 0.00 0.00 75 1006.1
20260506173022 11 72 9.7 19.3 0.00 0.00 0.00 72 1005.3
20260506171521 12 55 16.1 27.4 0.00 0.00 0.00 69 1005.2
20260506170121 13 51 16.1 25.7 0.00 0.00 0.00 65 1004.7
20260506164538 13 23 8.0 20.9 0.00 0.00 0.00 63 1004.4
20260506163019 14 36 6.4 16.1 0.00 0.00 0.00 62 1004.3
20260506161521 15 38 4.8 16.1 0.00 0.00 0.00 62 1004.1
20260506160004 15 36 3.2 14.5 0.00 0.00 0.00 62 1004.0
20260506154504 15 70 1.6 8.0 0.00 0.00 0.00 65 1004.0
20260506153004 14 28 0.0 6.4 0.00 0.00 0.00 66 1003.6
20260506151502 14 310 1.6 9.7 0.00 0.00 0.00 67 1003.6
20260506150003 14 286 1.6 6.4 0.00 0.00 0.00 65 1003.5
20260506144501 14 174 6.4 12.9 0.00 0.00 0.00 69 1003.7
20260506143001 14 144 8.0 20.9 0.00 0.00 0.00 69 1004.0
20260506141500 13 184 9.7 24.1 0.00 0.00 0.00 70 1003.8
20260506140101 14 257 12.9 29.0 0.00 0.00 0.00 70 1003.8
20260506134600 15 238 12.9 37.0 0.00 0.00 0.00 67 1003.2
20260506133115 17 232 3.2 9.7 0.00 0.00 0.00 62 1002.8
20260506131616 17 9 8.0 12.9 0.00 0.00 0.00 63 1002.2
20260506130059 17 30 4.8 12.9 0.00 0.00 0.00 63 1002.2
20260506124558 17 47 6.4 17.7 0.00 0.00 0.00 63 1002.3
20260506123057 17 42 11.3 22.5 0.00 0.00 0.00 61 1002.4
20260506121559 17 53 11.3 22.5 0.00 0.00 0.00 60 1002.4
20260506120104 18 24 12.9 22.5 0.00 0.00 0.00 58 1002.4
20260506114554 18 20 11.3 19.3 0.00 0.00 0.00 61 1002.4
20260506113052 17 9 14.5 20.9 0.00 0.00 0.00 59 1002.4
20260506111549 17 342 11.3 20.9 0.00 0.00 0.00 58 1002.9
20260506110057 17 343 12.9 22.5 0.00 0.00 0.00 59 1003.2
20260506104556 16 41 11.3 22.5 0.00 0.00 0.00 59 1003.3
20260506103045 15 28 11.3 19.3 0.00 0.00 0.00 60 1003.5
20260506101536 15 340 6.4 12.9 0.00 0.00 0.00 62 1003.6